,

(GMT )
Prerov

Weather History for LKPO - October, 2012

Change the Weather History Date:

Sunday, October 14, 2012

  Actual Average Record
Temperature  
Mean Temperature 48 °F -  
Max Temperature 55 °F - - ()
Min Temperature 41 °F - - ()
Degree Days  
Heating Degree Days 17    
Moisture  
Dew Point 46 °F    
Average Humidity 84    
Maximum Humidity 93    
Minimum Humidity 77    
Precipitation  
Precipitation 0.00 in - - ()
Sea Level Pressure  
Sea Level Pressure 29.76 in    
Wind  
Wind Speed 4 mph ()    
Max Wind Speed 10 mph    
Max Gust Speed -    
Visibility 5.4 miles    
Events Fog    
T = Trace of Precipitation, MM = Missing Value Source: Averaged Metar Reports

Daily Weather History Graph

Daily Weather History Graph

Search for Another Location

Airport or City:

Trip Planner

Search our weather history database for the weather conditions in past years. The results will help you decide how hot, cold, wet, or windy it might be!

Date:

Astronomy

Oct. 14, 2012 Rise Set
Actual Time 7:10 AM CEST 6:01 PM CEST
Civil Twilight 6:38 AM CEST 6:33 PM CEST
Nautical Twilight 6:01 AM CEST 7:10 PM CEST
Astronomical Twilight 5:24 AM CEST 7:47 PM CEST
Moon 5:45 AM CEST (10/14) 5:10 PM CEST (10/14)
Length of Visible Light 11h 55m
Length of Day
10h 51m
Waning Crescent, 2% of the Moon is Illuminated
Oct 14
Waning Crescent
Oct 15
New
Oct 22
First Quarter
Oct 29
Full
Nov 7
Last Quarter

Hourly Weather History & Observations

Time (CEST) Temp. Windchill Dew Point Humidity Pressure Visibility Wind Dir Wind Speed Gust Speed Precip Events Conditions
2:00 AM 46.4 °F 44.3 °F 42.8 °F 87% 29.83 in - East 4.6 mph - N/A   Clear
3:00 AM 44.6 °F 43.1 °F 42.8 °F 93% 29.80 in 6.2 mi East 3.5 mph - N/A   Scattered Clouds
4:00 AM 46.4 °F - 44.6 °F 93% 29.80 in 5.0 mi Variable 1.2 mph - N/A   Overcast
5:00 AM 46.4 °F - 44.6 °F 93% 29.80 in 4.3 mi Calm Calm - N/A   Overcast
8:00 AM 41.0 °F - 39.2 °F 93% 29.80 in 0.4 mi West 2.3 mph - N/A Fog Fog
9:00 AM 46.4 °F 44.3 °F 44.6 °F 93% 29.80 in 2.2 mi WNW 4.6 mph - N/A   Mostly Cloudy
10:00 AM 48.2 °F - 46.4 °F 93% 29.80 in 4.3 mi WNW 3.5 mph - N/A   Mostly Cloudy
11:00 AM 50.0 °F - 46.4 °F 87% 29.80 in 6.2 mi West 5.8 mph - N/A   Mostly Cloudy
12:00 PM 53.6 °F - 46.4 °F 77% 29.77 in 6.2 mi Variable 2.3 mph - N/A   Mostly Cloudy
1:00 PM 55.4 °F - 48.2 °F 77% 29.77 in 6.2 mi South 4.6 mph - N/A   Overcast
2:00 PM 55.4 °F - 48.2 °F 77% 29.77 in 6.2 mi South 10.4 mph - N/A   Overcast
3:00 PM 55.4 °F - 48.2 °F 77% 29.74 in 6.2 mi South 8.1 mph - N/A   Overcast
4:00 PM 55.4 °F - 48.2 °F 77% 29.74 in 6.2 mi South 6.9 mph - N/A   Mostly Cloudy
5:00 PM 55.4 °F - 48.2 °F 77% 29.74 in 6.2 mi South 6.9 mph - N/A   Overcast
6:00 PM 53.6 °F - 48.2 °F 82% 29.74 in 6.2 mi South 6.9 mph - N/A   Mostly Cloudy
7:00 PM 53.6 °F - 48.2 °F 82% 29.71 in 6.2 mi SSE 6.9 mph - N/A   Mostly Cloudy
8:00 PM 53.6 °F - 48.2 °F 82% 29.71 in 6.2 mi SSE 4.6 mph - N/A   Overcast
9:00 PM 53.6 °F - 48.2 °F 82% 29.71 in 6.2 mi Variable 2.3 mph - N/A   Overcast
10:00 PM 53.6 °F - 48.2 °F 82% 29.68 in 5.6 mi SE 3.5 mph - N/A   Overcast
11:00 PM 53.6 °F - 48.2 °F 82% 29.68 in 5.6 mi SE 3.5 mph - N/A   Overcast